sat.trackr.live / text

‹ back to catalog

JILIN-1 GAOFEN 2B

NORAD 44836 · 2019-086A

PAYLOAD ACTIVE UNKNOWN

§ Identity

Operator
Country
PRC
Launch date
2019-12-07
Launch site
TAISC
Launch vehicle
Mass (kg)
RCS (m²)

External: N2YO · Heavens-Above · Gunter

§ Orbital elements

Epoch: 2026-05-25T04:20:13.167744Z

Period
94.71 min
Inclination
97.4887°
Eccentricity
0.0015034
Mean motion
15.20408488 rev/d
Perigee alt
494.3 km
Apogee alt
515.0 km
Semi-major
6,882.7 km
B*
2.6173e-4
RAAN
217.3200°
Arg perigee
45.8304°
Mean anomaly
314.4164°
Rev number
35,699

§ Raw data

JILIN-1 GAOFEN 2B1 44836U 19086A   26145.18070796  .00005651  00000+0  26173-3 0  99932 44836  97.4887 217.3200 0015034  45.8304 314.4164 15.20408488356997

JSON: /api/v1/satellites/44836 · /tle

For live sub-satellite position, see the globe view (requires WebGL).

§ Visibility from observer

Set your observer location to see the next 7 days of passes ≥ 10°. The values pass through the URL so the page stays shareable.

No JS? Fill the form by hand. The geolocation button needs JavaScript.

§ Radio — SatNOGS DB

ModeDescriptionDownlinkUplink
FM S-band telemetry 2.219 GHz

1 transmitter · refreshed weekly from db.satnogs.org